Stillwater, OK

4:06 PM CDT on June 25, 2017 (GMT -0500)
Stillwater Municipal

Weather History for KSWO - February, 2014

Change the Weather History Date:

Wednesday, February 19, 2014

  Actual Average Record
Temperature  
Mean Temperature 50 °F -  
Max Temperature 64 °F 52 °F 75 °F (2011)
Min Temperature 37 °F 31 °F 18 °F (2006)
Degree Days  
Heating Degree Days 14    
Moisture  
Dew Point 46 °F    
Average Humidity 71    
Maximum Humidity 100    
Minimum Humidity 28    
Precipitation  
Precipitation 0.02 in - - ()
Sea Level Pressure  
Sea Level Pressure 29.72 in    
Wind  
Wind Speed 12 mph (SE)    
Max Wind Speed 22 mph    
Max Gust Speed 30 mph    
Visibility 7 miles    
Events Rain    
Averages and records for this station are not official NWS values.
T = Trace of Precipitation, MM = Missing Value Source: NWS Daily Summary

Daily Weather History Graph

Daily Weather History Graph

Search for Another Location

Airport or City:

Trip Planner

Search our weather history database for the weather conditions in past years. The results will help you decide how hot, cold, wet, or windy it might be!

Date:

Astronomy

Feb. 19, 2014 Rise Set
Actual Time 7:11 AM CST 6:13 PM CST
Civil Twilight 6:45 AM CST 6:39 PM CST
Nautical Twilight 6:15 AM CST 7:09 PM CST
Astronomical Twilight 5:45 AM CST 7:39 PM CST
Moon 10:58 PM CST (2/19) 9:27 AM CST (2/19)
Length of Visible Light 11h 54m
Length of Day
11h 02m
Waning Gibbous, 79% of the Moon is Illuminated
Feb 19
Waning Gibbous
Feb 22
Last Quarter
Mar 1
New
Mar 8
First Quarter
Mar 16
Full

Hourly Weather History & Observations

Time (CST) Temp. Windchill Dew Point Humidity Pressure Visibility Wind Dir Wind Speed Gust Speed Precip Events Conditions
12:53 AM 52.0 °F - 27.0 °F 38% 29.94 in 10.0 mi NNE 12.7 mph - N/A   Clear
1:53 AM 44.1 °F 41.5 °F 26.1 °F 49% 29.99 in 10.0 mi NNE 4.6 mph - N/A   Clear
2:53 AM 46.0 °F 40.6 °F 28.0 °F 50% 29.95 in 10.0 mi NE 11.5 mph - N/A   Clear
3:53 AM 43.0 °F 38.2 °F 27.0 °F 53% 29.94 in 10.0 mi East 8.1 mph - N/A   Clear
4:53 AM 42.1 °F 36.6 °F 28.0 °F 58% 29.95 in 10.0 mi ENE 9.2 mph - N/A   Clear
5:53 AM 39.9 °F 35.8 °F 27.0 °F 60% 29.96 in 10.0 mi ENE 5.8 mph - N/A   Clear
6:53 AM 37.0 °F 33.3 °F 28.0 °F 70% 29.95 in 10.0 mi East 4.6 mph - N/A   Clear
7:53 AM 43.0 °F 38.2 °F 30.0 °F 60% 29.94 in 10.0 mi ENE 8.1 mph - N/A   Clear
8:53 AM 50.0 °F - 28.0 °F 43% 29.92 in 10.0 mi ENE 12.7 mph - N/A   Clear
9:53 AM 54.0 °F - 25.0 °F 33% 29.90 in 10.0 mi ESE 16.1 mph 23.0 mph N/A   Partly Cloudy
10:53 AM 57.0 °F - 27.0 °F 32% 29.86 in 10.0 mi ESE 15.0 mph 20.7 mph N/A   Mostly Cloudy
11:53 AM 62.1 °F - 28.0 °F 28% 29.81 in 10.0 mi ESE 12.7 mph 21.9 mph N/A   Clear
12:28 PM 62.6 °F - 33.8 °F 34% 29.79 in 10.0 mi SE 13.8 mph 20.7 mph N/A   Mostly Cloudy
12:53 PM 64.9 °F - 37.9 °F 37% 29.76 in 10.0 mi SE 8.1 mph - N/A   Overcast
1:53 PM 64.9 °F - 52.0 °F 63% 29.70 in 10.0 mi SSE 21.9 mph 29.9 mph N/A   Overcast
2:53 PM 64.9 °F - 55.0 °F 70% 29.65 in 10.0 mi SSE 19.6 mph 28.8 mph N/A   Overcast
3:34 PM 62.6 °F - 55.4 °F 77% 29.65 in 10.0 mi SSE 16.1 mph 24.2 mph N/A   Overcast
3:53 PM 63.0 °F - 57.0 °F 81% 29.64 in 7.0 mi SSE 18.4 mph 27.6 mph N/A   Overcast
4:16 PM 62.6 °F - 57.2 °F 82% 29.64 in 4.0 mi SSE 15.0 mph 25.3 mph N/A   Overcast
4:53 PM 61.0 °F - 59.0 °F 93% 29.62 in 4.0 mi SSE 11.5 mph - N/A   Overcast
5:28 PM 60.8 °F - 59.0 °F 94% 29.63 in 2.5 mi South 12.7 mph - 0.00 in Rain Light Rain
5:36 PM 60.8 °F - 59.0 °F 94% 29.62 in 1.0 mi South 12.7 mph - 0.00 in Rain Light Rain
5:53 PM 61.0 °F - 60.1 °F 97% 29.61 in 1.0 mi South 12.7 mph - 0.01 in Rain Light Rain
6:05 PM 60.8 °F - 60.8 °F 100% 29.62 in 3.0 mi South 13.8 mph - 0.01 in Rain Light Rain
6:53 PM 61.0 °F - 59.0 °F 93% 29.59 in 9.0 mi SSE 13.8 mph - 0.01 in   Overcast
7:53 PM 61.0 °F - 59.0 °F 93% 29.58 in 6.0 mi SSE 13.8 mph - N/A   Overcast
8:21 PM 60.8 °F - 57.2 °F 88% 29.58 in 5.0 mi South 12.7 mph 20.7 mph N/A   Overcast
8:31 PM 60.8 °F - 57.2 °F 88% 29.58 in 5.0 mi South 13.8 mph - N/A   Overcast
8:49 PM 60.8 °F - 57.2 °F 88% 29.58 in 5.0 mi South 11.5 mph 21.9 mph N/A   Overcast
8:53 PM 60.1 °F - 57.9 °F 93% 29.57 in 5.0 mi South 13.8 mph - N/A   Overcast
9:31 PM 60.8 °F - 57.2 °F 88% 29.57 in 6.0 mi South 12.7 mph 20.7 mph N/A   Overcast
9:53 PM 61.0 °F - 57.9 °F 90% 29.55 in 6.0 mi South 8.1 mph - N/A   Overcast
10:53 PM 62.1 °F - 59.0 °F 90% 29.52 in 7.0 mi South 10.4 mph - N/A   Overcast
11:36 PM 62.6 °F - 57.2 °F 82% 29.51 in 7.0 mi South 13.8 mph 21.9 mph N/A   Scattered Clouds
11:53 PM 62.1 °F - 57.9 °F 86% 29.49 in 7.0 mi South 12.7 mph - N/A   Mostly Cloudy